Regional Weather Roundup
Issued by NWS Wilmington, NC

Home | Current Version | Previous Version | Text Only | Print | Product List | Glossary On
Versions: 1 2 3 4 5 6 7 8 9 10 11 12 13 14 15 16 17 18 19 20 21 22 23 24 25 26 27 28 29 30 31 32 33 34 35 36 37 38 39 40 41 42 43 44 45 46 47 48 49 50
000
ASUS42 KILM 170410
RWRILM
RWRILM
REGIONAL HOURLY WEATHER ROUNDUP
NATIONAL WEATHER SERVICE WILMINGTON NC
1200 AM EDT WED SEP 17 2014

NOTE: "FAIR" INDICATES FEW OR NO CLOUDS BELOW 12,000 FEET WITH NO
SIGNIFICANT WEATHER AND/OR OBSTRUCTIONS TO VISIBILITY.

...............WFO WILMINGTON COUNTY WARNING AREA...............

......COASTAL NC AND SC COUNTIES......

CITY           SKY/WX    TMP DP  RH WIND       PRES   REMARKS
WILMINGTON     PTCLDY    73  71  93 CALM      29.96R
SOUTHPORT      MOCLDY    75  71  87 CALM      29.95S
N MYRTLE BEACH PTCLDY    75  72  90 NW6       29.95R
MYRTLE BEACH   PTCLDY    73  70  88 N5        29.95S

......INLAND NC AND SC COUNTIES.......

CITY           SKY/WX    TMP DP  RH WIND       PRES   REMARKS
LUMBERTON      LGT RAIN  70  64  81 NE17G26   29.98R
ELIZABETHTOWN  MOCLDY    72  72 100 CALM      29.99R
WHITEVILLE     PTCLDY    73  71  95 CALM      29.97R FOG
FLORENCE       MOCLDY    73  69  87 S3        29.95S
DARLINGTON     MOCLDY    73  68  83 N7        29.99R

....................REST OF NORTH CAROLINA......................

.........EASTERN NC.........

CITY           SKY/WX    TMP DP  RH WIND       PRES   REMARKS
CAPE HATTERAS  MOCLDY    71  71 100 E5        29.97F
JACKSONVILLE   MOCLDY    70  66  88 CALM      29.98R
MOREHEAD CITY  RAIN      76  73  91 W6        29.96S FOG
KENANSVILLE    CLOUDY    71  69  95 CALM      29.99S
NEW BERN       MOCLDY    73  69  87 CALM      29.98R
ELIZABETH CITY CLOUDY    70  64  81 E5        29.99R

.........CENTRAL NC.........

CITY           SKY/WX    TMP DP  RH WIND       PRES   REMARKS
RALEIGH DURHAM CLOUDY    70  67  90 CALM      29.98S
ROCKY MOUNT    CLOUDY    71  68  90 CALM      29.99R
ROANOKE RAPIDS NOT AVBL
FAYETTEVILLE   LGT RAIN  67  65  93 SW8       29.97F
HOFFMAN        LGT RAIN  64  63  94 VRB2      30.00S

.........WESTERN NC.........

CITY           SKY/WX    TMP DP  RH WIND       PRES   REMARKS
CHARLOTTE      PTCLDY    67  64  90 N3        29.99S
GREENSBORO     CLOUDY    69  66  90 CALM      30.01R
HICKORY        NOT AVBL
BOONE          NOT AVBL
ASHEVILLE      NOT AVBL

.....................REST OF SOUTH CAROLINA.....................

.........EASTERN SC.........

CITY           SKY/WX    TMP DP  RH WIND       PRES   REMARKS
CHARLESTON     PTCLDY    72  70  93 SE5       29.95R
BEAUFORT MCAS  LGT RAIN  75  73  93 CALM      29.95R
HILTON HEAD    NOT AVBL

.........CENTRAL SC.........

CITY           SKY/WX    TMP DP  RH WIND       PRES   REMARKS
COLUMBIA       MOCLDY    75  69  81 W6        29.94R
ORANGEBURG     MOCLDY    71  68  90 W3        29.96R
SUMTER SHAW    MOCLDY    72  68  86 SW3       29.93S

.........WESTERN SC.........

CITY           SKY/WX    TMP DP  RH WIND       PRES   REMARKS
GREENVILLE     NOT AVBL
ROCK HILL      LGT RAIN  68  68 100 SE3       29.98S FOG
ANDERSON       CLEAR     69  65  86 CALM      29.98S
CLEMSON        NOT AVBL
GREENWOOD      CLEAR     69  64  84 CALM      29.98R


...................COASTAL AND OFFSHORE REPORTS..................

................LOCAL PIERS AND NC RESERVE................


STATION/POSITION TIME  SKY/WX   TEMP    WIND        PRES    VSBY
                                AIR SEA DIR/SP/G
                 (UTC)          (F)     (DEG/KT/KT) (MB)    (MI)
JOHNY MRCER PIER 0400            78 83  270/  4/  5 1013.9R
NC RESRV MASNBRO 0300            77     190/  3     1014.0S
OCEAN CREST PIER 0400            80 81  140/  6/  7 1013.3R
SPRINGMAID  PIER 0400            74 82  320/  5/  6 1014.1S


................COASTAL AND OFFSHORE BUOYS................


STATION/POSITION TIME  SKY/WX   TEMP    WIND        PRES    VSBY
                                AIR SEA DIR/SP/G
                 (UTC)          (F)     (DEG/KT/KT) (MB)    (MI)
DIMNDSHOAL 41025 0400            74     350/ 10/ 12 1014.4F
WVE H/P(F/S)=  2/12 SWL H/P/D(F/S/D)=  2/ 90/12

CAPE LOOKOUT     0300            78     200/  5/  6 1014.2F
ONSLOW BAY 41036 0400            80 81  190/  6/  8 1014.5R
WVE H/P(F/S)=  2/13 SWL H/P/D(F/S/D)=  2/130/13

5 WRITEBCH 41038 0300            76 81  190/  8/ 10   N/A
MASONBORO  41110 0400               82                N/A
WVE H/P(F/S)=  2/13 WND WVE H/P(F/S)=  2/ 7 SWL H/P/D(F/S/D)=  2/120/13

WILM HARBR 41108 0400               82                N/A
WVE H/P(F/S)=  2/13 WND WVE H/P(F/S)=  2/ 8 SWL H/P/D(F/S/D)=  2/130/13

27WRITEBCH 41037 0300            76 82  170/  8/ 10 1013.7F
FRYING PAN 41013 NOT AVBL
SUNST NRSH 41024 NOT AVBL
CAPRS NRSH 41029 0300            76      70/  6/  6   N/A
EDISTO     41004 0400            78 83  160/  8/ 10 1013.8R
WVE H/P(F/S)=  2/12 WND WVE H/P(F/S)=  2/ 3 SWL H/P/D(F/S/D)=  2/12



..........OFFSHORE BUOYS BEYOND 100 NM OFFSHORE...........
.....IN A TRIANGLE---HAT TO BERMUDA TO BAHAMAS TO HAT.....


STATION/POSITION TIME  SKY/WX   TEMP    WIND        PRES    VSBY
                                AIR SEA DIR/SP/G
                 (UTC)          (F)     (DEG/KT/KT) (MB)    (MI)
150E HAT   41001 NOT AVBL
W BERMUDA  41048 0309            80 82  360/ 10/ 12 1013.9F
WVE H/P(F/S)=  7/14 WND WVE H/P(F/S)=  2/ 4 SWL H/P/D(F/S/D)=  7/100/14

ATLANTIC S 41049 0307            82 85  280/  4/  6 1015.7F
WVE H/P(F/S)=  6/ 9 WND WVE H/P(F/S)=  2/ 4 SWL H/P/D(F/S/D)=  7/ 60/ 9

E BAHAMAS  41046 0344            83 85   70/  4/  6 1016.1F
WVE H/P(F/S)=  7/11 SWL H/P/D(F/S/D)=  7/ 80/11

NE BAHAMAS 41047 0321            81 84  220/  2/  4 1016.3F
WVE H/P(F/S)=  6/15 SWL H/P/D(F/S/D)=  7/ 80/15

120E CANVRL41010 0400            82 85  210/  6/  8 1015.4R
WVE H/P(F/S)=  2/13 WND WVE H/P(F/S)=  2/ 4 SWL H/P/D(F/S/D)=  2/110/13


END



USA.gov is the U.S. government's official web portal to all federal, state and local government web resources and services.